This is the latest recevied weather packets stored in our database for station/object WD4HMR. If no packets are shown the sender has not sent any weather packets the latest 10 day(s).
| Time | Temp. | Humidity | Pressure | Rain* | Wind** | Luminosity | Snow |
|---|---|---|---|---|---|---|---|
| 1778107504 | 23.33° C | 90% | 1012.1 hPa | 0 mm | - | 644 W/m² | - |
| 1778104805 | 22.78° C | 91% | 1011.8 hPa | 0 mm | - | 713 W/m² | - |
| 1778104504 | 22.78° C | 90% | 1012 hPa | 0 mm | - | 595 W/m² | - |
| 1778103905 | 23.33° C | 90% | 1012.2 hPa | 0 mm | - | 593 W/m² | - |
| 1778103605 | 23.33° C | 90% | 1012.2 hPa | 0 mm | - | 647 W/m² | - |
| 1778103315 | 23.33° C | 89% | 1012.1 hPa | 0 mm | - | 939 W/m² | - |
| 1778102704 | 23.89° C | 88% | 1012.5 hPa | 0 mm | - | 800 W/m² | - |
| 1778102403 | 23.89° C | 86% | 1012.8 hPa | 0 mm | - | 997 W/m² | - |
| 1778101805 | 24.44° C | 84% | 1013.1 hPa | 0 mm | - | 1034 W/m² | - |
| 1778100305 | 24.44° C | 81% | 1013.5 hPa | 0 mm | - | 1120 W/m² | - |
| 1778100005 | 24.44° C | 82% | 1013.5 hPa | 0 mm | - | 1135 W/m² | - |
| 1778099705 | 24.44° C | 82% | 1013.4 hPa | 0 mm | - | 1150 W/m² | - |
| 1778095809 | 24.44° C | 81% | 1014.6 hPa | 0 mm | - | 1293 W/m² | - |
| 1778094605 | 24.44° C | 80% | 1014.8 hPa | 0 mm | - | 1314 W/m² | - |
| 1778092805 | 24.44° C | 80% | 1015 hPa | 0 mm | - | 1324 W/m² | - |
| 1778092215 | 24.44° C | 79% | 1015.1 hPa | 0 mm | - | 1322 W/m² | - |
| 1778092205 | 24.44° C | 79% | 1015.1 hPa | 0 mm | - | 1322 W/m² | - |
| 1778091614 | 24.44° C | 79% | 1015.1 hPa | 0 mm | - | 1316 W/m² | - |
| 1778088905 | 25.56° C | 76% | 1015.3 hPa | 0 mm | - | 1257 W/m² | - |
| 1778088605 | 25.56° C | 76% | 1015.3 hPa | 0 mm | - | 1247 W/m² | - |
| 1778086805 | 25° C | 76% | 1015.2 hPa | 0 mm | - | 1173 W/m² | - |
| 1778086511 | 25° C | 75% | 1015.3 hPa | 0 mm | - | 1159 W/m² | - |
| 1778086205 | 25° C | 76% | 1015.4 hPa | 0 mm | - | 1144 W/m² | - |
| 1778085304 | 25° C | 75% | 1015.3 hPa | 0 mm | - | 1097 W/m² | - |
| 1778085004 | 24.44° C | 76% | 1015.3 hPa | 0 mm | - | 1080 W/m² | - |
* Rain latest hour (hover to see other rain measurements)
** Current wind speed in m/s (hover to see current wind gust speed)